This is the latest recevied weather packets stored in our database for station/object CX5ACA-13. If no packets are shown the sender has not sent any weather packets the latest 1 day(s).
| Time | Temp. | Humidity | Pressure | Rain* | Wind** | Luminosity | Snow |
|---|---|---|---|---|---|---|---|
| 1778115362 | 25° C | 90% | 1001.7 hPa | 0 mm | - | 0 W/m² | - |
| 1778115058 | 25° C | 90% | 1001.8 hPa | 0 mm | - | 0 W/m² | - |
| 1778114755 | 25° C | 91% | 1002.1 hPa | 0 mm | - | 0 W/m² | - |
| 1778114148 | 24.44° C | 91% | 1002.2 hPa | 0 mm | - | 0 W/m² | - |
| 1778113843 | 24.44° C | 91% | 1002 hPa | 0 mm | - | 0 W/m² | - |
| 1778113236 | 24.44° C | 91% | 1002.3 hPa | 0 mm | - | 0 W/m² | - |
| 1778112933 | 24.44° C | 91% | 1002.7 hPa | 0 mm | - | 0 W/m² | - |
| 1778111720 | 24.44° C | 90% | 1003.8 hPa | 0 mm | - | 0 W/m² | - |
| 1778110810 | 24.44° C | 90% | 1004.6 hPa | 0 mm | - | 0 W/m² | - |
| 1778109293 | 25° C | 89% | 1005.6 hPa | 0 mm | - | 0 W/m² | - |
| 1778108686 | 25° C | 89% | 1005.6 hPa | 0 mm | - | 0 W/m² | - |
| 1778107777 | 25° C | 88% | 1005.9 hPa | 0 mm | - | 0 W/m² | - |
| 1778107171 | 25° C | 88% | 1006.2 hPa | 0 mm | - | 0 W/m² | - |
| 1778106564 | 25° C | 88% | 1006.2 hPa | 0 mm | - | 0 W/m² | - |
| 1778105352 | 25° C | 87% | 1006.2 hPa | 0 mm | - | 0 W/m² | - |
| 1778104136 | 25.56° C | 87% | 1006.3 hPa | 0 mm | - | 0 W/m² | - |
| 1778101710 | 25.56° C | 85% | 1006.2 hPa | 0 mm | - | 1 W/m² | - |
| 1778101407 | 25.56° C | 85% | 1006.1 hPa | 0 mm | - | 2 W/m² | - |
| 1778100800 | 26.11° C | 84% | 1006.4 hPa | 0 mm | - | 5 W/m² | - |
| 1778099892 | 26.11° C | 82% | 1006.1 hPa | 0 mm | - | 15 W/m² | - |
| 1778099589 | 26.67° C | 82% | 1006.3 hPa | 0 mm | - | 19 W/m² | - |
| 1778098679 | 26.67° C | 80% | 1006.6 hPa | 0 mm | - | 36 W/m² | - |
| 1778098376 | 27.22° C | 79% | 1006.5 hPa | 0 mm | - | 43 W/m² | - |
| 1778097466 | 27.22° C | 79% | 1006.6 hPa | 0 mm | - | 68 W/m² | - |
| 1778097162 | 27.78° C | 77% | 1006.7 hPa | 0 mm | - | 77 W/m² | - |
* Rain latest hour (hover to see other rain measurements)
** Current wind speed in m/s (hover to see current wind gust speed)